[[{"header":{"parameterUnit":"m.s-1","parameterCategory":1,"la1":30.2991,"la2":30.254,"lo1":-89.0895,"lo2":-89.0444,"dy":0.0017,"dx":0.0017,"nx":28,"ny":28,"refTime":"2024-07-26T09:00:00:Z","depth":0,"parameterNumber":2,"parameterNumberName":"U-component_of_WINDS"},"data":[0,0,0,0,0,0,0,0,0,0,0,0,0,0,0,0,0,0,0,0,0,0,0,0,0,0,0,0,0,0,0,0,0,0,0,0,0,0,0,0,0,0,0,0,0,0,0,0,0,0,0,0,0,0,0,0,0,0,-2.8735,-2.8735,0,-2.8782,-2.8783,-2.8784,-2.8741,-2.874,-2.8738,-2.8736,-2.8786,-2.8788,-2.8791,0,0,0,0,0,0,0,0,0,0,0,0,0,-2.861,-2.8612,-2.8735,-2.8736,-2.8736,-2.8782,-2.8783,-2.8784,-2.8742,-2.8739,-2.8737,-2.8735,-2.8785,-2.8788,-2.8792,0,0,0,0,0,0,0,0,0,0,0,0,0,-2.8661,-2.8613,-2.8735,-2.8721,-2.872,-2.8782,-2.8783,-2.8784,-2.8742,-2.8739,-2.8737,-2.8734,-2.8783,-2.8788,-2.8792,-2.8871,0,0,-2.8805,-2.8807,0,0,0,0,0,0,0,0,-2.8658,-2.8666,-2.8722,-2.8722,-2.8721,-2.8753,-2.8757,-2.8813,-2.8743,-2.8734,-2.8736,-2.8733,-2.8777,-2.8782,-2.8796,-2.8873,-2.8875,-2.8806,-2.8809,-2.881,-2.8812,0,0,0,0,0,0,0,-2.8655,-2.8664,-2.8754,-2.8723,-2.8722,-2.8713,-2.8717,-2.8767,-2.8769,-2.8734,-2.8731,-2.8737,-2.8776,-2.8792,-2.8797,-2.8876,-2.8806,-2.881,-2.8812,-2.8814,-2.9022,-2.9024,0,0,0,0,0,0,-2.8653,-2.8661,-2.8752,-2.8755,-2.8683,-2.8717,-2.8722,-2.8746,-2.8769,-2.877,-2.874,-2.8735,-2.8786,-2.8792,-2.8799,-2.8893,-2.881,-2.8814,-2.8817,-2.9019,-2.9022,-2.9025,0,0,0,0,0,0,-2.865,-2.8661,-2.875,-2.8707,-2.8718,-2.8722,-2.8749,-2.8748,-2.8764,-2.8773,-2.8773,-2.8755,-2.8784,-2.8793,-2.8854,-2.8894,-2.8816,-2.882,-2.9015,-2.902,-2.9024,-2.9081,0,0,0,0,0,0,-2.8647,-2.8661,-2.869,-2.8708,-2.872,-2.8804,-2.8751,-2.8751,-2.8771,-2.8766,-2.8788,-2.8789,-2.8783,-2.8847,-2.8858,-2.8898,-2.8824,-2.9012,-2.9017,-2.9022,-2.9076,-2.9087,-2.9097,0,0,0,0,0,-2.8642,-2.8704,-2.8692,-2.8703,-2.8757,-2.8806,-2.8813,-2.8805,-2.8775,-2.8805,-2.8811,-2.8788,-2.8888,-2.8854,-2.8865,-2.8908,-2.9009,-2.9016,-2.9022,-2.9071,-2.9085,-2.9097,0,0,0,0,0,0,-2.869,-2.8706,-2.8692,-2.8762,-2.8783,-2.8799,-2.8836,-2.8819,-2.8849,-2.8843,-2.8832,-2.8838,-2.8902,-2.8911,-2.8873,-2.8986,-2.8944,-2.8953,-2.8977,-2.899,-2.9001,-2.8996,-2.8828,0,0,0,0,0,-2.8709,-2.8747,-2.8759,-2.8819,-2.883,-2.8832,-2.8853,-2.8845,-2.8866,-2.8875,-2.8885,-2.8907,-2.8944,-2.8968,-2.9002,-2.9078,-2.9082,-2.9113,-2.9124,-2.9132,-2.914,-2.9181,-2.9195,-2.9047,-2.9047,-2.9046,0,0,-2.8747,-2.8761,-2.8785,-2.8829,-2.8844,-2.8884,-2.8839,-2.8883,-2.8913,-2.8882,-2.8939,-2.8949,-2.8973,-2.9041,-2.9072,-2.9051,-2.9182,-2.914,-2.9147,-2.915,-2.9189,-2.9203,-2.9216,-2.9051,-2.905,-2.905,0,0,-2.8837,-2.8852,-2.8904,-2.892,-2.8945,-2.8945,-2.8958,-2.8977,-2.8982,-2.904,-2.9018,-2.9054,-2.9117,-2.9135,-2.9152,-2.9253,-2.9233,-2.9265,-2.9318,-2.9359,-2.9371,-2.9381,-2.9416,-2.9429,-2.9272,-2.9273,-2.9273,0,-2.8882,-2.8941,-2.8932,-2.8978,-2.8999,-2.8973,-2.9026,-2.9043,-2.9077,-2.9092,-2.9068,-2.9147,-2.9162,-2.9235,-2.926,-2.9275,-2.9289,-2.9261,-2.937,-2.938,-2.9389,-2.9423,-2.9437,-2.9276,-2.9276,-2.9275,-2.9275,0,-2.8995,-2.9037,-2.9076,-2.9109,-2.9134,-2.9184,-2.9183,-2.921,-2.9201,-2.9204,-2.9265,-2.9282,-2.9319,-2.9336,-2.9328,-2.9409,-2.9395,-2.9371,-2.9328,-2.9407,-2.9439,-2.9452,-2.9281,-2.928,-2.9279,-2.9278,0,0,-2.9114,-2.9144,-2.9158,-2.9174,-2.92,-2.9232,-2.9281,-2.9318,-2.9341,-2.9366,-2.9407,-2.9463,-2.9441,-2.9461,-2.9455,-2.949,-2.9569,-2.9462,-2.9462,-2.948,-2.966,-2.9677,-2.9692,-2.9557,-2.956,-2.9562,-2.9657,0,-2.9204,-2.9288,-2.9283,-2.9363,-2.9402,-2.9379,-2.9422,-2.9443,-2.9449,-2.9483,-2.949,-2.9529,-2.9497,-2.9509,-2.9544,-2.9552,-2.9605,-2.9545,-2.9595,-2.9597,-2.9588,-2.9708,-2.9726,-2.9815,-2.967,-2.9672,-2.9673,0,-2.932,-2.935,-2.9434,-2.9455,-2.9471,-2.951,-2.9544,-2.9577,-2.9601,-2.9603,-2.9627,-2.9615,-2.9666,-2.9623,-2.9693,-2.9653,-2.9673,-2.9681,-2.9684,-2.9687,-2.9638,-2.9713,-2.9843,-2.9857,-2.9693,-2.9691,-2.969,0,-2.9398,-2.9459,-2.9517,-2.9531,-2.9558,-2.9586,-2.9598,-2.962,-2.9643,-2.9674,-2.9688,-2.9725,-2.9744,-2.9773,-2.9772,-2.9741,-2.9843,-2.98,-2.9845,-2.9846,-2.9866,-2.9864,-3.0,-2.9882,-2.9882,-2.9882,-2.9881,0,-2.9498,-2.955,-2.9552,-2.9587,-2.9645,-2.964,-2.9698,-2.9708,-2.9728,-2.9765,-2.9749,-2.9785,-2.9782,-2.9819,-2.9819,-2.9877,-2.9886,-2.9889,-2.9888,-2.9889,-2.9889,-2.9901,-2.9894,-2.9885,-2.9884,-2.9884,-2.9883,0,-2.9593,-2.9597,-2.9658,-2.968,-2.9686,-2.9728,-2.9746,-2.9781,-2.9786,-2.9834,-2.9845,-2.9853,-2.9896,-2.9898,-2.9947,-2.9947,-3.0018,-3.001,-3.0009,-3.0007,-3.0052,-3.0048,-3.02,-3.0219,-3.009,-3.0091,-3.0092,0,-2.9656,-2.9696,-2.9722,-2.9746,-2.976,-2.9799,-2.9823,-2.982,-2.9846,-2.9878,-2.9908,-2.9949,-2.9982,-3.0051,-3.0062,-3.01,-3.0093,-3.0143,-3.0098,-3.0099,-3.0092,-3.0089,-3.0093,-3.0151,-3.0153,-3.0154,-3.0155,0,-2.9768,-2.9768,-2.9802,-2.9839,-2.9867,-2.9896,-2.9922,-2.9943,-2.9943,-2.9973,-3.0016,-3.0042,-3.0093,-3.0134,-3.0171,-3.0185,-3.017,-3.017,-3.0182,-3.0183,-3.018,-3.0182,-3.0032,-3.0166,-3.0165,-3.0164,-3.0163,-3.0163,-2.9848,-2.9882,-2.9906,-2.9946,-2.9965,-2.9991,-3.0024,-3.0035,-3.0071,-3.0111,-3.0108,-3.0156,-3.0182,-3.0231,-3.0248,-3.0286,-3.0269,-3.0287,-3.0291,-3.0295,-3.03,-3.0176,-3.0293,-3.0293,-3.0292,-3.0292,-3.0292,0,-2.9958,-2.9973,-3.0009,-3.0047,-3.0078,-3.0063,-3.0092,-3.0119,-3.0162,-3.0187,-3.022,-3.027,-3.0311,-3.0326,-3.0366,-3.0393,-3.0388,-3.0404,-3.0401,-3.0404,-3.0313,-3.0298,-3.0408,-3.0408,-3.0408,-3.0408,-3.0408,-3.0408,-3.0018,-3.0075,-3.0079,-3.0147,-3.0162,-3.0208,-3.0226,-3.025,-3.027,-3.0327,-3.0361,-3.0371,-3.0392,-3.0434,-3.0471,-3.0474,-3.0489,-3.0508,-3.0509,-3.0422,-3.0411,-3.0399,-3.0385,-3.0512,-3.0512,-3.0597,-3.0597,-3.0598]},{"header":{"parameterUnit":"m.s-1","parameterCategory":1,"la1":30.2991,"la2":30.254,"lo1":-89.0895,"lo2":-89.0444,"dy":0.0017,"dx":0.0017,"nx":28,"ny":28,"refTime":"2024-07-26T09:00:00:Z","depth":0,"parameterNumber":3,"parameterNumberName":"V-component_of_WINDS"},"data":[0,0,0,0,0,0,0,0,0,0,0,0,0,0,0,0,0,0,0,0,0,0,0,0,0,0,0,0,0,0,0,0,0,0,0,0,0,0,0,0,0,0,0,0,0,0,0,0,0,0,0,0,0,0,0,0,0,0,0.5565,0.5564,0,0.5449,0.5448,0.5446,0.536,0.536,0.5359,0.5358,0.5239,0.5236,0.5234,0,0,0,0,0,0,0,0,0,0,0,0,0,0.5714,0.5711,0.5566,0.5564,0.5563,0.5449,0.5448,0.5446,0.536,0.536,0.5359,0.5358,0.5239,0.5236,0.5233,0,0,0,0,0,0,0,0,0,0,0,0,0,0.5629,0.5711,0.5566,0.5506,0.55,0.545,0.5448,0.5446,0.5361,0.536,0.5358,0.5357,0.524,0.5237,0.5233,0.5233,0,0,0.5222,0.522,0,0,0,0,0,0,0,0,0.5633,0.5623,0.5517,0.551,0.5503,0.5418,0.5456,0.5374,0.5361,0.5414,0.5358,0.5357,0.5299,0.5291,0.5271,0.5227,0.5222,0.5221,0.5219,0.5217,0.5216,0,0,0,0,0,0,0,0.5639,0.5628,0.5519,0.5515,0.5507,0.5485,0.5472,0.544,0.5364,0.5409,0.5402,0.539,0.5295,0.5275,0.5268,0.522,0.5221,0.5218,0.5216,0.5214,0.5169,0.517,0,0,0,0,0,0,0.5655,0.5633,0.5523,0.5516,0.5567,0.5484,0.5469,0.5446,0.5364,0.5351,0.5391,0.5386,0.5282,0.5272,0.5263,0.5256,0.5217,0.5214,0.5212,0.5168,0.517,0.5171,0,0,0,0,0,0,0.5658,0.5646,0.5528,0.5573,0.5556,0.5482,0.5458,0.5445,0.5424,0.5351,0.5337,0.5384,0.5281,0.5268,0.5241,0.5251,0.5212,0.5209,0.5167,0.5169,0.517,0.5244,0,0,0,0,0,0,0.5663,0.5647,0.5646,0.5573,0.5554,0.5508,0.5459,0.5443,0.5418,0.5411,0.534,0.5328,0.5279,0.5247,0.5237,0.5245,0.5206,0.5166,0.5168,0.517,0.524,0.5248,0.5254,0,0,0,0,0,0.5668,0.5672,0.5647,0.5634,0.5551,0.5508,0.5497,0.5441,0.5419,0.5418,0.537,0.533,0.5252,0.5245,0.5233,0.524,0.5165,0.5167,0.517,0.5237,0.5246,0.5254,0,0,0,0,0,0,0.5747,0.5661,0.5632,0.5612,0.5568,0.5494,0.549,0.5453,0.5414,0.5409,0.534,0.5325,0.5305,0.527,0.5263,0.5236,0.5203,0.5204,0.5259,0.5267,0.5274,0.5282,0.5203,0,0,0,0,0,0.5763,0.5735,0.5661,0.5651,0.563,0.5564,0.5543,0.5504,0.5456,0.5436,0.5387,0.5342,0.5307,0.5285,0.5249,0.5236,0.5219,0.5235,0.5242,0.5248,0.5249,0.5239,0.5245,0.5179,0.5179,0.5178,0,0,0.5793,0.5743,0.573,0.5665,0.5626,0.5599,0.5549,0.5522,0.5501,0.5432,0.5403,0.5366,0.531,0.529,0.5278,0.526,0.5264,0.5251,0.5257,0.5253,0.5242,0.5248,0.5254,0.518,0.518,0.518,0,0,0.5835,0.5795,0.5781,0.5744,0.5686,0.5642,0.564,0.5571,0.5543,0.5513,0.546,0.5435,0.5377,0.5339,0.5313,0.5342,0.5303,0.5333,0.5369,0.536,0.5365,0.5369,0.5379,0.5384,0.5334,0.5334,0.5334,0,0.5881,0.5838,0.5779,0.5755,0.5728,0.5666,0.5651,0.5618,0.5551,0.5534,0.5515,0.5441,0.5399,0.5369,0.5376,0.5357,0.5351,0.5339,0.5369,0.5373,0.5376,0.5385,0.5389,0.5338,0.5337,0.5337,0.5336,0,0.5896,0.5867,0.5863,0.5801,0.5774,0.5755,0.5693,0.5673,0.5637,0.5595,0.5565,0.5514,0.5466,0.5456,0.542,0.5421,0.5411,0.5382,0.5348,0.5387,0.5394,0.5397,0.5343,0.5342,0.5341,0.534,0,0,0.5982,0.5889,0.5888,0.5859,0.5792,0.5768,0.5747,0.5701,0.5684,0.5641,0.5621,0.5574,0.5546,0.5517,0.5476,0.5469,0.5495,0.544,0.5437,0.5451,0.5492,0.5513,0.5518,0.5469,0.547,0.547,0.5496,0,0.6013,0.5971,0.5918,0.5894,0.5866,0.5807,0.5789,0.5745,0.5707,0.5678,0.5635,0.5602,0.5568,0.555,0.554,0.5494,0.5502,0.5491,0.545,0.5449,0.5464,0.5522,0.5544,0.5571,0.5498,0.5499,0.5499,0,0.6042,0.6002,0.5976,0.5911,0.5897,0.5882,0.5835,0.5808,0.5758,0.5731,0.5698,0.5655,0.563,0.5601,0.5565,0.5559,0.5539,0.5514,0.5514,0.5506,0.5475,0.5515,0.5578,0.5582,0.5503,0.5502,0.5502,0,0.6107,0.6047,0.6023,0.6,0.5924,0.5914,0.5882,0.5831,0.5807,0.5767,0.575,0.5708,0.5684,0.5652,0.5599,0.5583,0.5569,0.5535,0.5545,0.5546,0.5543,0.5543,0.5603,0.5533,0.5533,0.5533,0.5532,0,0.6145,0.6131,0.6051,0.6036,0.6019,0.5959,0.5943,0.5905,0.5861,0.5838,0.5785,0.5764,0.5695,0.5667,0.5625,0.5602,0.5592,0.5569,0.5557,0.5572,0.5575,0.5557,0.5554,0.5534,0.5533,0.5533,0.5533,0,0.6213,0.6159,0.6129,0.606,0.6043,0.6033,0.5974,0.5957,0.5916,0.5888,0.5878,0.5813,0.5777,0.5721,0.5668,0.564,0.5623,0.5606,0.564,0.5633,0.5645,0.5645,0.5694,0.5697,0.5627,0.5628,0.5628,0,0.6241,0.6228,0.6159,0.6139,0.6109,0.6079,0.6054,0.5995,0.5972,0.5914,0.5905,0.5865,0.5829,0.5775,0.5723,0.5683,0.5663,0.5683,0.5656,0.5672,0.5662,0.5663,0.5661,0.5689,0.569,0.5691,0.5691,0,0.6295,0.6269,0.6235,0.6193,0.6165,0.6128,0.6089,0.6076,0.6009,0.5985,0.5947,0.592,0.5867,0.5827,0.578,0.5747,0.5708,0.5701,0.57,0.5715,0.5735,0.5724,0.5656,0.5699,0.5698,0.5698,0.5697,0.5697,0.6342,0.6329,0.6278,0.6242,0.6207,0.6172,0.6153,0.611,0.6077,0.6029,0.5997,0.5961,0.5912,0.5845,0.5814,0.5785,0.5768,0.5768,0.5768,0.5769,0.5774,0.5741,0.5777,0.5776,0.5776,0.5776,0.5776,0,0.6393,0.6357,0.6325,0.6272,0.6245,0.6211,0.6167,0.6145,0.6115,0.6073,0.6039,0.5997,0.5959,0.5905,0.5863,0.585,0.5832,0.5841,0.5841,0.5834,0.5792,0.5796,0.5857,0.5857,0.5857,0.5857,0.5857,0.5857,0.6416,0.6391,0.6359,0.6317,0.6281,0.6246,0.6223,0.6191,0.6156,0.6111,0.608,0.6045,0.5998,0.5952,0.5916,0.5901,0.5888,0.5903,0.5883,0.5844,0.5837,0.583,0.5833,0.5901,0.5901,0.5927,0.5927,0.5927]}]]